Погода в Чистовском

Казахстан     54°53′50″N   70°37′37″E
темп.,
°C
ветер,
м/с
пор.,
м/с
влажн.,
%
обл.,
%
осадки,
мм/ч
давл.,
гПа
погр.,
м
25 февраля, чт
чт2500:00−29юз239546 0.0 100919
03:00−29зюз239885 0.0 101019
06:00−28зюз339883 0.0 101160
09:00−26з2398100 0.1 101385
12:00−21ссз5792100 0.2 1014643
15:00−22ссз5790100 0.1 1017716
18:00−25сз4993100 0.1 1021467
21:00−29зсз459898 0.0 102479
26 февраля, пт
пт2600:00−31зсз459858 0.0 102779
03:00−31з349843 0.0 102869
06:00−31з349958 0.0 103050
09:00−30з349898 0.0 103178
12:00−26зюз469699 0.0 1033270
15:00−24юз459497 0.0 1032326
18:00−26юз359692 0.0 103391
21:00−29юз34970 0.0 103441
27 февраля, сб
сб2700:00−30юз34980 0.0 103436
03:00−30ююз33960 0.0 103328
06:00−31ююз34960 0.0 103333
09:00−31ю33960 0.0 103243
12:00−26ююв46938 0.0 1031241
15:00−23ююв579325 0.0 1029276
18:00−24юв599312 0.0 1028226
21:00−21юв6129684 0.0 1022268
28 февраля, вс
вс2800:00−16юв7129592 0.3 1019411
03:00−14юв71294100 0.8 1015500
06:00−12ююв61294100 1.8 1012572
09:00−10юв61194100 0.6 1009436
12:00−7юв61093100 0.9 1006459
15:00−4ююв5995100 0.3 1004447
18:00−1ю4898100 1.1 1003426
21:00−1ююз4992100 0.4 1002416
1 марта, пн
пн100:00−3юз3897100 0.4 1003229
03:00−3юз4896100 0.4 1002341
06:00−4зюз4796100 0.7 1003246
09:00−7сз359699 0.2 1005141
12:00−10ссз459394 0.4 1006305
15:00−10сз469298 0.1 1008436
18:00−13сз479299 0.2 1011463
21:00−16зсз489686 0.1 1014180